Location: Chin
(49.7667°N, 112.4500°W)
Time: 11:39:26
(UTC+00:00)

Envisat - Pass Details

Date: 28 November 2021
Orbit: 764 x 766 km, 98.2° (Epoch: 23 January)

Event Time Altitude Azimuth Distance (km) Brightness Sun altitude
Rises 14:13:57 0° 3° (N) 3,247 6.0 -7.6°
Reaches altitude 10° 14:16:50 10° 347° (NNW) 2,316 5.1 -7.2°
Maximum altitude 14:20:22 19° 303° (WNW) 1,754 4.3 -6.7°
Drops below altitude 10° 14:23:53 10° 259° (WSW) 2,305 5.0 -6.2°
Sets 14:26:46 0° 242° (WSW) 3,227 5.9 -5.8°
